Tracking 31027 objects as of 19-Jul-2025
HD Live streaming from Space Station
objects crossing your sky now

ARIANE 5 R/B

Track ARIANE 5 R/B now!


NORAD ID: 37208
Int'l Code: 2010-056C
Perigee: 272.9 km
Apogee: 29,138.1 km
Inclination: 2.3 °
Period: 507.5 minutes
Semi major axis: 21076 km
RCS: 23.4894 m2 (large)
Launch date: October 28, 2010
Source: France (FR)
Launch site: FRENCH GUIANA (FRGUI)

Note: This is a ROCKET BODY
Your satellite tracking list
PRISMA
Track 1 satellite(s)




NASA's NSSDC Master Catalog

Two Line Element Set (TLE):
1 37208U 10056C   25199.51452685  .00001510  00000-0  37436-3 0  9997
2 37208   2.3427 137.5241 6847719 240.5169  35.1711  2.83729816136242
Source of the keplerian elements: AFSPC